map of RES home
RES - Airport
Location
City:  Resistencia, Chaco, Argentina
Name:Resistencia International Airport
ICAO:SARE
IATA:RES

Details
Type:Airport (Aerodrome, Airfield)
Use:Public/Civil, International (customs port of entry)
Latitude:2727'00"S (-27.449985)
Longitude:5903'22"W (-59.056124)
Datum:WGS 1984
Elevation:173 ft (53 m)
Variation:12.21W (WMM2015 magnetic declination)
-0.19 annual change
Runways:1
Longest:9088 × 147 ft (2770 × 45 m), paved

Time
Time Zone:UTC-3
Local Time:

Weather
METAR:SARE 181400Z 08005KT 020V140 CAVOK 31/24 Q1008
TAF:SARE 181100Z 1812/1912 07010KT 9999 FEW020 FEW045TCU TX30/1818Z TN20/1909Z
BECMG 1820/1821 8000 -TSRA BKN025 FEW050CB
BECMG 1901/1902 9999 BKN030

Related Locations
Nearby:
Farthest:WNZ: 12441 mi / 20021 km
Wenzhou [Intl], 33, CN

Find:

   beyond  
but within

Other Information
Maps:
NOTAMs:
Links:
Sources:

  
  • flag of Argentina
  • flag of Chaco
  

Sectional Chart

Flight Planning
at skyvector.com

Satellite Image

Google Maps Satellite view

 

Copyright © 2004-2018 Karl L. Swartz. All rights reserved.
The Great Circle Mapper name and logo are trademarks of the Great Circle Mapper.
All other trademarks mentioned herein belong to their respective owners.
Please see credits for attibutions and further copyright information.

  Follow gcmap on Facebook Follow gcmap on Twitter Follow gcmap on Google+ GCmap on LinkedIn

hCard Microformat

Geo Microformat